User: anonymous   Login
Location: Newark
(37.3333°N, 6.0167°W)
Time: 06:29:37
(UTC+00:00)
Language:

CAS-4B - Orbit

View from above orbital plane
View from above orbital plane
View from above satellite
View from above satellite

Ground track
Ground track

The orbit data is extracted from the following two-line orbital elements,

1 42759U 17034B   19340.85275647  .00000058  00000-0  17067-4 0  9991
2 42759  43.0207  10.6505 0012484 254.8374 273.4066 15.09696223136702
Epoch (UTC): 06 December 2019 20:27:58
Eccentricity: 0.0012484
inclination: 43.0207°
perigee height: 528 km
apogee height: 546 km
right ascension of ascending node: 10.6505°
argument of perigee: 254.8374°
revolutions per day: 15.09696223
mean anomaly at epoch: 273.4066°
orbit number at epoch: 13670

The dashed part of the orbit path shows where the satellite is in the earth's shadow,  

DLR